Location: Владивосток
(43.1151°N, 131.8856°E)
Time: 10:55:44
(UTC+10:00)

NOAA 18 - Pass Details

Date: 01 May 2024
Orbit: 837 x 859 km, 98.9° (Epoch: 29 May)

Event Time Altitude Azimuth Distance (km) Brightness Sun altitude
Exits shadow 21:43:05 13° 87° (E) 2,310 7.0 -14.9°
Maximum altitude 21:45:31 16° 58° (ENE) 2,074 7.0 -15.2°
Drops below altitude 10° 21:48:49 10° 21° (NNE) 2,498 7.9 -15.7°
Sets 21:52:03 0° 2° (N) 3,435 9.0 -16.1°
